Location: Groß Eilstorf
(52.8200°N, 9.4552°E)
Time: 20:39:07
(UTC+00:00)

Cosmos 1980 - Pass Details

Date: 15 May 2026
Orbit: 838 x 845 km, 71.0° (Epoch: 6 June)

Event Time Altitude Azimuth Distance (km) Brightness Sun altitude
Rises 22:39:52 0° 328° (NNW) 3,407 8.1 -17.6°
Reaches altitude 10° 22:42:19 10° 329° (NNW) 2,470 7.2 -17.7°
Maximum altitude 22:48:01 87° 57° (ENE) 852 3.7 -17.8°
Enters shadow 22:51:12 27° 148° (SSE) 1,553 4.6 -17.9°
